Simultaneous Nadir Overpasses (SNOs) Predictions

Prediction of SNOs between FY3D and METOP-C Satellite Orbit:

Table of predicted SNOs for the next 14.0 days since TLE Epoch: 9/17/2021
Index Date (FY3D) Time (FY3D) Lat,Lon (FY3D) SZA (FY3D ) Date (METOP-C) Time (METOP-C) Lat,Lon (METOP-C) SZA (METOP-C ) Distance(km) Time Diff (sec)
1 09/30/2021 19:07:45 74.35,-115.00 77.45 09/30/2021 19:08:50 74.34,-111.74 77.38 97.61 65
2 09/30/2021 19:58:28 -74.33, 52.37 102.56 09/30/2021 19:59:34 -74.26, 55.39 102.69 91.29 66
3 09/30/2021 20:49:09 74.11,-139.75 77.22 09/30/2021 20:50:18 74.02,-137.88 77.09 57.83 69
4 09/30/2021 21:39:51 -74.04, 27.73 102.84 09/30/2021 21:41:01 -73.99, 29.38 102.92 50.78 70
5 09/30/2021 22:30:32 73.82,-164.40 76.94 09/30/2021 22:31:45 73.75,-163.87 76.85 18.03 73
6 09/30/2021 23:21:15 -73.80, 2.95 103.07 09/30/2021 23:22:28 -73.72, 3.39 103.16 16.22 73
7 10/01/2021 00:11:58 73.67, 170.58 76.82 10/01/2021 00:13:08 73.67, 170.61 76.81 1.14 70
8 10/01/2021 01:02:41 -73.66, -22.07 103.19 10/01/2021 01:03:51 -73.65, -22.12 103.20 1.69 70



Historial Predications of SNOs between FY3D and METOP-C
